Weather History for KBUY - April, 2013

Change the Weather History Date:

Wednesday, April 24, 2013

  Actual Average Record
Temperature  
Mean Temperature 60 °F -  
Max Temperature 75 °F 74 °F 92 °F (1960)
Min Temperature 46 °F 49 °F 35 °F (1986)
Degree Days  
Heating Degree Days 6    
Growing Degree Days 10 (Base 50)    
Moisture  
Dew Point 52 °F    
Average Humidity 71    
Maximum Humidity 97    
Minimum Humidity 48    
Precipitation  
Precipitation 0.01 in - - ()
Sea Level Pressure  
Sea Level Pressure 30.06 in    
Wind  
Wind Speed 4 mph (SSW)    
Max Wind Speed 20 mph    
Max Gust Speed 28 mph    
Visibility 10 miles    
Events      
Averages and records for this station are not official NWS values.
T = Trace of Precipitation, MM = Missing Value Source: NWS Daily Summary

Daily Weather History Graph

Daily Weather History Graph

Search for Another Location

Airport or City:

Trip Planner

Search our weather history database for the weather conditions in past years. The results will help you decide how hot, cold, wet, or windy it might be!

Date:

Astronomy

Apr. 24, 2013 Rise Set
Actual Time 6:33 AM EDT 7:59 PM EDT
Civil Twilight 6:06 AM EDT 8:26 PM EDT
Nautical Twilight 5:33 AM EDT 8:58 PM EDT
Astronomical Twilight 4:59 AM EDT 9:33 PM EDT
Moon 7:01 PM EDT (4/24) 5:33 AM EDT (4/24)
Length of Visible Light 14h 20m
Length of Day
13h 26m
Waxing Gibbous, 98% of the Moon is Illuminated
Apr 24
Waxing Gibbous
Apr 25
Full
May 2
Last Quarter
May 9
New
May 18
First Quarter

Hourly Weather History & Observations

Time (EDT) Temp. Dew Point Humidity Pressure Visibility Wind Dir Wind Speed Gust Speed Precip Events Conditions
12:54 AM 51.1 °F 48.0 °F 89% 30.13 in 10.0 mi Calm Calm - N/A   Clear
1:54 AM 50.0 °F 48.0 °F 93% 30.12 in 10.0 mi Calm Calm - N/A   Clear
2:54 AM 46.9 °F 46.0 °F 97% 30.10 in 10.0 mi Calm Calm - N/A   Clear
3:54 AM 48.0 °F 46.0 °F 93% 30.10 in 9.0 mi Calm Calm - N/A   Clear
4:54 AM 46.9 °F 45.0 °F 93% 30.10 in 10.0 mi Calm Calm - N/A   Clear
6:54 AM 48.0 °F 46.9 °F 96% 30.12 in 7.0 mi Calm Calm - 0.01 in   Clear
7:54 AM 53.1 °F 51.1 °F 93% 30.12 in 9.0 mi South 3.5 mph - N/A   Clear
8:54 AM 59.0 °F 53.1 °F 81% 30.12 in 10.0 mi SSW 8.1 mph - N/A   Clear
9:54 AM 63.0 °F 53.1 °F 70% 30.11 in 10.0 mi SSW 11.5 mph 18.4 mph N/A   Clear
10:54 AM 64.9 °F 53.1 °F 65% 30.10 in 10.0 mi South 9.2 mph - N/A   Clear
11:54 AM 66.9 °F 55.0 °F 66% 30.08 in 10.0 mi South 8.1 mph - N/A   Clear
12:54 PM 69.1 °F 55.0 °F 61% 30.06 in 10.0 mi South 9.2 mph 17.3 mph N/A   Clear
1:54 PM 72.0 °F 55.0 °F 55% 30.06 in 10.0 mi SSW 11.5 mph 21.9 mph N/A   Clear
2:54 PM 73.9 °F 53.1 °F 48% 30.03 in 10.0 mi SSW 13.8 mph 26.5 mph N/A   Scattered Clouds
3:54 PM 73.0 °F 53.1 °F 49% 30.01 in 10.0 mi SW 19.6 mph 27.6 mph N/A   Partly Cloudy
4:54 PM 73.9 °F 54.0 °F 50% 29.99 in 10.0 mi SSW 15.0 mph 23.0 mph N/A   Clear
5:54 PM 73.9 °F 55.0 °F 52% 29.97 in 10.0 mi SW 10.4 mph 17.3 mph N/A   Clear
6:54 PM 73.0 °F 54.0 °F 51% 29.97 in 10.0 mi SSW 6.9 mph - N/A   Clear
8:54 PM 68.0 °F 54.0 °F 61% 30.00 in 10.0 mi SSW 4.6 mph - N/A   Clear
9:54 PM 66.0 °F 54.0 °F 65% 30.01 in 10.0 mi South 3.5 mph - N/A   Partly Cloudy
10:54 PM 64.9 °F 54.0 °F 68% 30.00 in 10.0 mi SSW 3.5 mph - N/A   Scattered Clouds
11:54 PM 64.0 °F 54.0 °F 70% 30.00 in 10.0 mi SSW 5.8 mph - N/A   Clear